COSMOS 1932 FUEL CORE

Satellite information

Favourite Embed

Satellite Type and Status

DEBRISIN ORBIT

Key statistics

Satellite COSMOS 1932 FUEL CORE at a glance.

Uptime

13689

Days in orbit

Revolutions

≈ 13.8

Per day

Orbit

LEO

Low Earth Orbit

Inclination

65.0

Latest

Satellite identification and parameters

Extended collection of information and parameters for COSMOS 1932 FUEL CORE.

Object identification

Identified? True

Debris? False

Object name: COSMOS 1932 FUEL CORE

International designator: 1988-019D

Object number (NORAD): 19162

Object ID (CCSDS): 19162

Country: COMMONWEALTH OF INDEPENDENT STATES (CIS)

Current information (Y/N): Y

RCS size: MEDIUM

Orbital parameters

Period: 104.052 minutes

Inclination: 65.0417 deg

SMA: 7328.126 km

Apoapsis: 978.072 km

Periapsis: 921.91 km

RAAN: 256.6142 deg

Eccentricy: 0.0038319

Argument of periapsis: 285.3969 deg

Mean anomaly: 141.8655 deg

Mean motion: 13.83927585 rev/day

Mean motion (dot): -0.00000059 rev/day2

B* drag term: 0.000025932953 1/REarth

Two-line elements (TLE)

Creation date: Sept. 4, 2025, 10:13 a.m.

Reference frame: TEME

Reference center: EARTH

Epoch: Sept. 4, 2025, 4:10 a.m. UTC

TLE line 0: 0 COSMOS 1932 FUEL CORE

TLE line 1: 1 19162U 88019D 25247.17416961 -.00000059 00000-0 25933-4 0 9991

TLE line 2: 2 19162 65.0417 256.6142 0038319 285.3969 141.8655 13.83927585884524

Live tracking on map

Real-time ground track for satellite COSMOS 1932 FUEL CORE.

In-orbit conjunctions

A list of the most updated potential collisions computed for object COSMOS 1932 FUEL CORE.

Target Orbit TCA Probability of collision Miss distance Type
DELTA 1 R/B SSO 2024-12-29 05:26:17 0.000315295 117.0 (m) ROCKET BODY
POLAR BEAR LEO 2024-06-21 11:45:51 0.000347475 95.0 (m) PAYLOAD

Associated space launch

Active radar satellite for ocean surveillance powered by a nuclear reactor.

COSMOS 1932 FUEL CORE was lifted into orbit during the mission ‘Tsiklon-2 | US-A 32’, on board a Tsiklon-2 space rocket.

The launch took place on March 14, 1988, 2:21 p.m. from 90.

For more information about the launch, click the button.

Launch to space Tsiklon-2 | US-A 32
Tsiklon-2 | US-A 32

Agency: N/A

Status: Launch Successful

Launch date: March 14, 1988, 2:21 p.m. UTC

Rocket: Tsiklon-2

Launch pad: 90

Location: Baikonur Cosmodrome, Republic of Kazakhstan

...

Latest news about this satellite

There are no fresh news available about this satellite. Check back as we update our databases every day.


Newsletter sign-up

Weekly statistics, charts and insights to help you stay on top of the space industry.